Back to catalog

STARLINK-34623

AliveCommunicationsVLEO
NORAD 65018·PAYLOAD·🇺🇸 United States

Launched Jul 30, 2025 from Cape Canaveral Space Force Station

Loading…

Next Passes (next 24 hours)

TLE

FreshSource: CelesTrak SupGP

Epoch: Sep 14, 2026, 14:53 UTC

1 65018C 25161D   26257.62062500  .00043004  00000+0  12704-2 0  2571
2 65018  53.1574 135.0816 0001417 101.7753  55.6752 15.34372774    12

Track STARLINK-34623 in real time with AllMySat

Download on the App Store